This is the latest recevied weather packets stored in our database for station/object AG7BI. If no packets are shown the sender has not sent any weather packets the latest 10 day(s).
| Time | Temp. | Humidity | Pressure | Rain* | Wind** | Luminosity | Snow |
|---|---|---|---|---|---|---|---|
| 1777862752 | 19.44° C | 46% | 1009.5 hPa | 0 mm | - | - | - |
| 1777862452 | 20° C | 45% | 1009.6 hPa | 0 mm | - | - | - |
| 1777862152 | 20° C | 43% | 1009.6 hPa | 0 mm | - | - | - |
| 1777861852 | 20.56° C | 42% | 1009.8 hPa | 0 mm | - | - | - |
| 1777861552 | 20.56° C | 43% | 1009.6 hPa | 0 mm | - | - | - |
| 1777861252 | 20.56° C | 43% | 1009.8 hPa | 0 mm | - | - | - |
| 1777860952 | 20.56° C | 41% | 1009.8 hPa | 0 mm | - | - | - |
| 1777860652 | 20.56° C | 40% | 1009.6 hPa | 0 mm | - | - | - |
| 1777860352 | 21.11° C | 40% | 1009.8 hPa | 0 mm | - | - | - |
| 1777860052 | 21.11° C | 40% | 1009.8 hPa | 0 mm | - | - | - |
| 1777859752 | 21.11° C | 40% | 1010 hPa | 0 mm | - | - | - |
| 1777859452 | 21.11° C | 41% | 1010 hPa | 0 mm | - | - | - |
| 1777859152 | 21.11° C | 38% | 1010.2 hPa | 0 mm | - | - | - |
| 1777858852 | 21.67° C | 37% | 1010.1 hPa | 0 mm | - | - | - |
| 1777858552 | 21.67° C | 38% | 1010.1 hPa | 0 mm | - | - | - |
| 1777858252 | 21.67° C | 36% | 1010.2 hPa | 0 mm | - | - | - |
| 1777857952 | 21.67° C | 38% | 1010.2 hPa | 0 mm | - | - | - |
| 1777857652 | 21.67° C | 38% | 1010.3 hPa | 0 mm | - | - | - |
| 1777857352 | 21.67° C | 37% | 1010.3 hPa | 0 mm | - | - | - |
| 1777857052 | 21.67° C | 36% | 1010.2 hPa | 0 mm | - | - | - |
| 1777856752 | 21.67° C | 38% | 1010.4 hPa | 0 mm | - | - | - |
| 1777856452 | 21.67° C | 39% | 1010.3 hPa | 0 mm | - | - | - |
| 1777856152 | 21.67° C | 36% | 1010.3 hPa | 0 mm | - | - | - |
| 1777855852 | 21.67° C | 36% | 1010.4 hPa | 0 mm | - | - | - |
| 1777855552 | 21.67° C | 37% | 1010.7 hPa | 0 mm | - | - | - |
* Rain latest hour (hover to see other rain measurements)
** Current wind speed in m/s (hover to see current wind gust speed)